owner,sensor,date,latitude,longitude,vertical_datum,sea_water_practical_salinity,qcFlag 
DISL,ioos:station:DISL:CATA:1,2013-12-01T00:00:00Z,30.3085,-88.1395,2.109,22.11,1111122 
DISL,ioos:station:DISL:CATA:1,2013-12-01T00:30:00Z,30.3085,-88.1395,2.124,22.33,1111122 
DISL,ioos:station:DISL:CATA:1,2013-12-01T01:00:00Z,30.3085,-88.1395,2.131,22.5,1111122 
DISL,ioos:station:DISL:CATA:1,2013-12-01T01:30:00Z,30.3085,-88.1395,2.142,22.63,1111122 
DISL,ioos:station:DISL:CATA:1,2013-12-01T02:00:00Z,30.3085,-88.1395,2.132,22.75,1111122 
DISL,ioos:station:DISL:CATA:1,2013-12-01T02:30:00Z,30.3085,-88.1395,2.128,22.86,1111122 
DISL,ioos:station:DISL:CATA:1,2013-12-01T03:00:00Z,30.3085,-88.1395,2.115,22.88,1111122 
DISL,ioos:station:DISL:CATA:1,2013-12-01T03:30:00Z,30.3085,-88.1395,2.101,23.33,1111122 
DISL,ioos:station:DISL:CATA:1,2013-12-01T04:00:00Z,30.3085,-88.1395,2.081,23.39,1111122 
DISL,ioos:station:DISL:CATA:1,2013-12-01T04:30:00Z,30.3085,-88.1395,2.046,23.35,1111122 
DISL,ioos:station:DISL:CATA:1,2013-12-01T05:00:00Z,30.3085,-88.1395,2.027,22.74,1111122 
DISL,ioos:station:DISL:CATA:1,2013-12-01T05:30:00Z,30.3085,-88.1395,2.019,20.72,1111122 
DISL,ioos:station:DISL:CATA:1,2013-12-01T06:00:00Z,30.3085,-88.1395,1.978,19.04,1111122 
DISL,ioos:station:DISL:CATA:1,2013-12-01T06:30:00Z,30.3085,-88.1395,1.934,17.75,1111122 
DISL,ioos:station:DISL:CATA:1,2013-12-01T07:00:00Z,30.3085,-88.1395,1.89,17.34,1111122 
DISL,ioos:station:DISL:CATA:1,2013-12-01T07:30:00Z,30.3085,-88.1395,1.845,17.1,1111122 
DISL,ioos:station:DISL:CATA:1,2013-12-01T08:00:00Z,30.3085,-88.1395,1.799,16.96,1111122 
DISL,ioos:station:DISL:CATA:1,2013-12-01T08:30:00Z,30.3085,-88.1395,1.756,16.82,1111122 
DISL,ioos:station:DISL:CATA:1,2013-12-01T09:00:00Z,30.3085,-88.1395,1.712,16.54,1111122 
DISL,ioos:station:DISL:CATA:1,2013-12-01T09:30:00Z,30.3085,-88.1395,1.68,15.73,1111122 
DISL,ioos:station:DISL:CATA:1,2013-12-01T10:00:00Z,30.3085,-88.1395,1.657,15.65,1111122 
DISL,ioos:station:DISL:CATA:1,2013-12-01T10:30:00Z,30.3085,-88.1395,1.64,15.44,1111122 
DISL,ioos:station:DISL:CATA:1,2013-12-01T11:00:00Z,30.3085,-88.1395,1.626,15.22,1111122 
DISL,ioos:station:DISL:CATA:1,2013-12-01T11:30:00Z,30.3085,-88.1395,1.618,15.07,1111122 
DISL,ioos:station:DISL:CATA:1,2013-12-01T12:00:00Z,30.3085,-88.1395,1.615,14.74,1111122 
DISL,ioos:station:DISL:CATA:1,2013-12-01T12:30:00Z,30.3085,-88.1395,1.624,14.39,1111122 
DISL,ioos:station:DISL:CATA:1,2013-12-01T13:00:00Z,30.3085,-88.1395,1.627,14.19,1111122 
DISL,ioos:station:DISL:CATA:1,2013-12-01T13:30:00Z,30.3085,-88.1395,1.645,13.97,1111122 
DISL,ioos:station:DISL:CATA:1,2013-12-01T14:00:00Z,30.3085,-88.1395,1.662,13.97,1111122 
DISL,ioos:station:DISL:CATA:1,2013-12-01T14:30:00Z,30.3085,-88.1395,1.69,13.93,1111122 
DISL,ioos:station:DISL:CATA:1,2013-12-01T15:00:00Z,30.3085,-88.1395,1.709,14.06,1111122 
DISL,ioos:station:DISL:CATA:1,2013-12-01T15:30:00Z,30.3085,-88.1395,1.743,14.02,1111122 
DISL,ioos:station:DISL:CATA:1,2013-12-01T16:00:00Z,30.3085,-88.1395,1.775,14.0,1111122 
DISL,ioos:station:DISL:CATA:1,2013-12-01T16:30:00Z,30.3085,-88.1395,1.797,14.01,1111122 
DISL,ioos:station:DISL:CATA:1,2013-12-01T17:00:00Z,30.3085,-88.1395,1.828,13.98,1111122 
DISL,ioos:station:DISL:CATA:1,2013-12-01T17:30:00Z,30.3085,-88.1395,1.858,14.0,1111122 
DISL,ioos:station:DISL:CATA:1,2013-12-01T18:00:00Z,30.3085,-88.1395,1.896,13.98,1111122 
DISL,ioos:station:DISL:CATA:1,2013-12-01T18:30:00Z,30.3085,-88.1395,1.93,14.04,1111122 
DISL,ioos:station:DISL:CATA:1,2013-12-01T19:00:00Z,30.3085,-88.1395,1.956,15.08,1111122 
DISL,ioos:station:DISL:CATA:1,2013-12-01T19:30:00Z,30.3085,-88.1395,1.992,16.67,1111122 
DISL,ioos:station:DISL:CATA:1,2013-12-01T20:00:00Z,30.3085,-88.1395,2.027,17.09,1111122 
DISL,ioos:station:DISL:CATA:1,2013-12-01T20:30:00Z,30.3085,-88.1395,2.055,17.35,1111122 
DISL,ioos:station:DISL:CATA:1,2013-12-01T21:00:00Z,30.3085,-88.1395,2.104,17.35,1111122 
DISL,ioos:station:DISL:CATA:1,2013-12-01T21:30:00Z,30.3085,-88.1395,2.14,17.66,1111122 
DISL,ioos:station:DISL:CATA:1,2013-12-01T22:00:00Z,30.3085,-88.1395,2.172,18.04,1111122 
DISL,ioos:station:DISL:CATA:1,2013-12-01T22:30:00Z,30.3085,-88.1395,2.196,18.38,1111122 
DISL,ioos:station:DISL:CATA:1,2013-12-01T23:00:00Z,30.3085,-88.1395,2.229,18.69,1111122 
DISL,ioos:station:DISL:CATA:1,2013-12-01T23:30:00Z,30.3085,-88.1395,2.256,19.12,1111122 
DISL,ioos:station:DISL:CATA:1,2013-12-02T00:00:00Z,30.3085,-88.1395,2.288,19.46,1111122 
DISL,ioos:station:DISL:CATA:1,2013-12-02T00:30:00Z,30.3085,-88.1395,2.322,19.87,1111122 
DISL,ioos:station:DISL:CATA:1,2013-12-02T01:00:00Z,30.3085,-88.1395,2.34,20.47,1111122 
DISL,ioos:station:DISL:CATA:1,2013-12-02T01:30:00Z,30.3085,-88.1395,2.346,21.1,1111122 
DISL,ioos:station:DISL:CATA:1,2013-12-02T02:00:00Z,30.3085,-88.1395,2.353,21.46,1111122 
DISL,ioos:station:DISL:CATA:1,2013-12-02T02:30:00Z,30.3085,-88.1395,2.354,21.8,1111122 
DISL,ioos:station:DISL:CATA:1,2013-12-02T03:00:00Z,30.3085,-88.1395,2.344,22.09,1111122 
DISL,ioos:station:DISL:CATA:1,2013-12-02T03:30:00Z,30.3085,-88.1395,2.333,22.3,1111122 
DISL,ioos:station:DISL:CATA:1,2013-12-02T04:00:00Z,30.3085,-88.1395,2.319,22.46,1111122 
DISL,ioos:station:DISL:CATA:1,2013-12-02T04:30:00Z,30.3085,-88.1395,2.289,23.02,1111122 
DISL,ioos:station:DISL:CATA:1,2013-12-02T05:00:00Z,30.3085,-88.1395,2.253,23.43,1111122 
DISL,ioos:station:DISL:CATA:1,2013-12-02T05:30:00Z,30.3085,-88.1395,2.21,23.33,1111122 
DISL,ioos:station:DISL:CATA:1,2013-12-02T06:00:00Z,30.3085,-88.1395,2.18,22.16,1111122 
DISL,ioos:station:DISL:CATA:1,2013-12-02T06:30:00Z,30.3085,-88.1395,2.156,18.32,1111122 
DISL,ioos:station:DISL:CATA:1,2013-12-02T07:00:00Z,30.3085,-88.1395,2.104,18.12,1111122 
DISL,ioos:station:DISL:CATA:1,2013-12-02T07:30:00Z,30.3085,-88.1395,2.041,18.25,1111122 
DISL,ioos:station:DISL:CATA:1,2013-12-02T08:00:00Z,30.3085,-88.1395,2.001,16.3,1111122 
DISL,ioos:station:DISL:CATA:1,2013-12-02T08:30:00Z,30.3085,-88.1395,1.945,15.88,1111122 
DISL,ioos:station:DISL:CATA:1,2013-12-02T09:00:00Z,30.3085,-88.1395,1.886,16.14,1111122 
DISL,ioos:station:DISL:CATA:1,2013-12-02T09:30:00Z,30.3085,-88.1395,1.835,16.49,1111122 
DISL,ioos:station:DISL:CATA:1,2013-12-02T10:00:00Z,30.3085,-88.1395,1.801,16.96,1111122 
DISL,ioos:station:DISL:CATA:1,2013-12-02T10:30:00Z,30.3085,-88.1395,1.759,16.58,1111122 
DISL,ioos:station:DISL:CATA:1,2013-12-02T11:00:00Z,30.3085,-88.1395,1.727,15.82,1111122 
DISL,ioos:station:DISL:CATA:1,2013-12-02T11:30:00Z,30.3085,-88.1395,1.707,14.94,1111122 
DISL,ioos:station:DISL:CATA:1,2013-12-02T12:00:00Z,30.3085,-88.1395,1.693,14.45,1111122 
DISL,ioos:station:DISL:CATA:1,2013-12-02T12:30:00Z,30.3085,-88.1395,1.666,14.35,1111122 
DISL,ioos:station:DISL:CATA:1,2013-12-02T13:00:00Z,30.3085,-88.1395,1.665,14.08,1111122 
DISL,ioos:station:DISL:CATA:1,2013-12-02T13:30:00Z,30.3085,-88.1395,1.666,14.42,1111122 
DISL,ioos:station:DISL:CATA:1,2013-12-02T14:00:00Z,30.3085,-88.1395,1.674,14.34,1111122 
DISL,ioos:station:DISL:CATA:1,2013-12-02T14:30:00Z,30.3085,-88.1395,1.69,13.99,1111122 
DISL,ioos:station:DISL:CATA:1,2013-12-02T15:00:00Z,30.3085,-88.1395,1.716,13.94,1111122 
DISL,ioos:station:DISL:CATA:1,2013-12-02T15:30:00Z,30.3085,-88.1395,1.732,14.07,1111122 
DISL,ioos:station:DISL:CATA:1,2013-12-02T16:00:00Z,30.3085,-88.1395,1.758,13.96,1111122 
DISL,ioos:station:DISL:CATA:1,2013-12-02T16:30:00Z,30.3085,-88.1395,1.786,13.88,1111122 
DISL,ioos:station:DISL:CATA:1,2013-12-02T17:00:00Z,30.3085,-88.1395,1.828,12.98,1111122 
DISL,ioos:station:DISL:CATA:1,2013-12-02T17:30:00Z,30.3085,-88.1395,1.861,13.17,1111122 
DISL,ioos:station:DISL:CATA:1,2013-12-02T18:00:00Z,30.3085,-88.1395,1.892,13.34,1111122 
DISL,ioos:station:DISL:CATA:1,2013-12-02T18:30:00Z,30.3085,-88.1395,1.919,13.49,1111122 
DISL,ioos:station:DISL:CATA:1,2013-12-02T19:00:00Z,30.3085,-88.1395,1.951,13.62,1111122 
DISL,ioos:station:DISL:CATA:1,2013-12-02T19:30:00Z,30.3085,-88.1395,1.979,13.91,1111122 
DISL,ioos:station:DISL:CATA:1,2013-12-02T20:00:00Z,30.3085,-88.1395,2.016,14.15,1111122 
DISL,ioos:station:DISL:CATA:1,2013-12-02T20:30:00Z,30.3085,-88.1395,2.051,14.45,1111122 
DISL,ioos:station:DISL:CATA:1,2013-12-02T21:00:00Z,30.3085,-88.1395,2.091,15.02,1111122 
DISL,ioos:station:DISL:CATA:1,2013-12-02T21:30:00Z,30.3085,-88.1395,2.131,15.45,1111122 
DISL,ioos:station:DISL:CATA:1,2013-12-02T22:00:00Z,30.3085,-88.1395,2.185,16.05,1111122 
DISL,ioos:station:DISL:CATA:1,2013-12-02T22:30:00Z,30.3085,-88.1395,2.226,16.37,1111122 
DISL,ioos:station:DISL:CATA:1,2013-12-02T23:00:00Z,30.3085,-88.1395,2.27,16.5,1111122 
DISL,ioos:station:DISL:CATA:1,2013-12-02T23:30:00Z,30.3085,-88.1395,2.315,16.81,1111122 
DISL,ioos:station:DISL:CATA:1,2013-12-03T00:00:00Z,30.3085,-88.1395,2.363,17.23,1111122 
DISL,ioos:station:DISL:CATA:1,2013-12-03T00:30:00Z,30.3085,-88.1395,2.401,17.72,1111122 
DISL,ioos:station:DISL:CATA:1,2013-12-03T01:00:00Z,30.3085,-88.1395,2.44,18.04,1111122 
DISL,ioos:station:DISL:CATA:1,2013-12-03T01:30:00Z,30.3085,-88.1395,2.474,18.73,1111122 
DISL,ioos:station:DISL:CATA:1,2013-12-03T02:00:00Z,30.3085,-88.1395,2.499,19.69,1111122 
DISL,ioos:station:DISL:CATA:1,2013-12-03T02:30:00Z,30.3085,-88.1395,2.529,20.48,1111122 
DISL,ioos:station:DISL:CATA:1,2013-12-03T03:00:00Z,30.3085,-88.1395,2.531,21.04,1111122 
DISL,ioos:station:DISL:CATA:1,2013-12-03T03:30:00Z,30.3085,-88.1395,2.536,21.73,1111122 
DISL,ioos:station:DISL:CATA:1,2013-12-03T04:00:00Z,30.3085,-88.1395,2.537,22.11,1111122 
DISL,ioos:station:DISL:CATA:1,2013-12-03T04:30:00Z,30.3085,-88.1395,2.528,22.21,1111122 
DISL,ioos:station:DISL:CATA:1,2013-12-03T05:00:00Z,30.3085,-88.1395,2.513,22.28,1111122 
DISL,ioos:station:DISL:CATA:1,2013-12-03T05:30:00Z,30.3085,-88.1395,2.465,25.02,1111122 
DISL,ioos:station:DISL:CATA:1,2013-12-03T06:00:00Z,30.3085,-88.1395,2.432,25.72,1111122 
DISL,ioos:station:DISL:CATA:1,2013-12-03T06:30:00Z,30.3085,-88.1395,2.395,26.35,1111122 
DISL,ioos:station:DISL:CATA:1,2013-12-03T07:00:00Z,30.3085,-88.1395,2.354,26.5,1111122 
DISL,ioos:station:DISL:CATA:1,2013-12-03T07:30:00Z,30.3085,-88.1395,2.307,24.33,1111122 
DISL,ioos:station:DISL:CATA:1,2013-12-03T08:00:00Z,30.3085,-88.1395,2.267,19.78,1111122 
DISL,ioos:station:DISL:CATA:1,2013-12-03T08:30:00Z,30.3085,-88.1395,2.213,20.86,1111122 
DISL,ioos:station:DISL:CATA:1,2013-12-03T09:00:00Z,30.3085,-88.1395,2.166,21.05,1111122 
DISL,ioos:station:DISL:CATA:1,2013-12-03T09:30:00Z,30.3085,-88.1395,2.131,20.72,1111122 
DISL,ioos:station:DISL:CATA:1,2013-12-03T10:00:00Z,30.3085,-88.1395,2.084,20.66,1111122 
DISL,ioos:station:DISL:CATA:1,2013-12-03T10:30:00Z,30.3085,-88.1395,2.045,19.87,1111122 
DISL,ioos:station:DISL:CATA:1,2013-12-03T11:00:00Z,30.3085,-88.1395,2.001,20.43,1111122 
DISL,ioos:station:DISL:CATA:1,2013-12-03T11:30:00Z,30.3085,-88.1395,1.955,20.58,1111122 
DISL,ioos:station:DISL:CATA:1,2013-12-03T12:00:00Z,30.3085,-88.1395,1.916,19.64,1111122 
DISL,ioos:station:DISL:CATA:1,2013-12-03T12:30:00Z,30.3085,-88.1395,1.891,19.06,1111122 
DISL,ioos:station:DISL:CATA:1,2013-12-03T13:00:00Z,30.3085,-88.1395,1.861,17.76,1111122 
DISL,ioos:station:DISL:CATA:1,2013-12-03T13:30:00Z,30.3085,-88.1395,1.856,17.26,1111122 
DISL,ioos:station:DISL:CATA:1,2013-12-03T14:00:00Z,30.3085,-88.1395,1.846,17.39,1111122 
DISL,ioos:station:DISL:CATA:1,2013-12-03T14:30:00Z,30.3085,-88.1395,1.856,17.14,1111122 
DISL,ioos:station:DISL:CATA:1,2013-12-03T15:00:00Z,30.3085,-88.1395,1.865,17.68,1111122 
DISL,ioos:station:DISL:CATA:1,2013-12-03T15:30:00Z,30.3085,-88.1395,1.875,18.2,1111122 
DISL,ioos:station:DISL:CATA:1,2013-12-03T16:00:00Z,30.3085,-88.1395,1.889,18.42,1111122 
DISL,ioos:station:DISL:CATA:1,2013-12-03T16:30:00Z,30.3085,-88.1395,1.89,18.64,1111122 
DISL,ioos:station:DISL:CATA:1,2013-12-03T17:00:00Z,30.3085,-88.1395,1.901,18.48,1111122 
DISL,ioos:station:DISL:CATA:1,2013-12-03T17:30:00Z,30.3085,-88.1395,1.927,18.28,1111122 
DISL,ioos:station:DISL:CATA:1,2013-12-03T18:00:00Z,30.3085,-88.1395,1.97,16.87,1111122 
DISL,ioos:station:DISL:CATA:1,2013-12-03T18:30:00Z,30.3085,-88.1395,2.017,15.22,1111122 
DISL,ioos:station:DISL:CATA:1,2013-12-03T19:00:00Z,30.3085,-88.1395,2.037,15.67,1111122 
DISL,ioos:station:DISL:CATA:1,2013-12-03T19:30:00Z,30.3085,-88.1395,2.058,15.96,1111122 
DISL,ioos:station:DISL:CATA:1,2013-12-03T20:00:00Z,30.3085,-88.1395,2.088,16.17,1111122 
DISL,ioos:station:DISL:CATA:1,2013-12-03T20:30:00Z,30.3085,-88.1395,2.124,16.42,1111122 
DISL,ioos:station:DISL:CATA:1,2013-12-03T21:00:00Z,30.3085,-88.1395,2.154,16.57,1111122 
DISL,ioos:station:DISL:CATA:1,2013-12-03T21:30:00Z,30.3085,-88.1395,2.179,16.73,1111122 
DISL,ioos:station:DISL:CATA:1,2013-12-03T22:00:00Z,30.3085,-88.1395,2.211,17.08,1111122 
DISL,ioos:station:DISL:CATA:1,2013-12-03T22:30:00Z,30.3085,-88.1395,2.238,17.76,1111122 
DISL,ioos:station:DISL:CATA:1,2013-12-03T23:00:00Z,30.3085,-88.1395,2.277,18.3,1111122 
DISL,ioos:station:DISL:CATA:1,2013-12-03T23:30:00Z,30.3085,-88.1395,2.295,18.33,1111122 
DISL,ioos:station:DISL:CATA:1,2013-12-04T00:00:00Z,30.3085,-88.1395,2.352,18.49,1111122 
DISL,ioos:station:DISL:CATA:1,2013-12-04T00:30:00Z,30.3085,-88.1395,2.387,18.77,1111122 
DISL,ioos:station:DISL:CATA:1,2013-12-04T01:00:00Z,30.3085,-88.1395,2.421,19.06,1111122 
DISL,ioos:station:DISL:CATA:1,2013-12-04T01:30:00Z,30.3085,-88.1395,2.46,19.4,1111122 
DISL,ioos:station:DISL:CATA:1,2013-12-04T02:00:00Z,30.3085,-88.1395,2.498,19.75,1111122 
DISL,ioos:station:DISL:CATA:1,2013-12-04T02:30:00Z,30.3085,-88.1395,2.517,20.36,1111122 
DISL,ioos:station:DISL:CATA:1,2013-12-04T03:00:00Z,30.3085,-88.1395,2.532,21.04,1111122 
DISL,ioos:station:DISL:CATA:1,2013-12-04T03:30:00Z,30.3085,-88.1395,2.55,21.24,1111122 
DISL,ioos:station:DISL:CATA:1,2013-12-04T04:00:00Z,30.3085,-88.1395,2.564,21.29,1111122 
DISL,ioos:station:DISL:CATA:1,2013-12-04T04:30:00Z,30.3085,-88.1395,2.567,21.74,1111122 
DISL,ioos:station:DISL:CATA:1,2013-12-04T05:00:00Z,30.3085,-88.1395,2.556,22.13,1111122 
DISL,ioos:station:DISL:CATA:1,2013-12-04T05:30:00Z,30.3085,-88.1395,2.533,22.39,1111122 
DISL,ioos:station:DISL:CATA:1,2013-12-04T06:00:00Z,30.3085,-88.1395,2.509,23.97,1111122 
DISL,ioos:station:DISL:CATA:1,2013-12-04T06:30:00Z,30.3085,-88.1395,2.474,24.91,1111122 
DISL,ioos:station:DISL:CATA:1,2013-12-04T07:00:00Z,30.3085,-88.1395,2.438,25.18,1111122 
DISL,ioos:station:DISL:CATA:1,2013-12-04T07:30:00Z,30.3085,-88.1395,2.402,24.86,1111122 
DISL,ioos:station:DISL:CATA:1,2013-12-04T08:00:00Z,30.3085,-88.1395,2.343,22.92,1111122 
DISL,ioos:station:DISL:CATA:1,2013-12-04T08:30:00Z,30.3085,-88.1395,2.301,22.39,1111122 
DISL,ioos:station:DISL:CATA:1,2013-12-04T09:00:00Z,30.3085,-88.1395,2.256,22.59,1111122 
DISL,ioos:station:DISL:CATA:1,2013-12-04T09:30:00Z,30.3085,-88.1395,2.195,23.13,1111122 
DISL,ioos:station:DISL:CATA:1,2013-12-04T10:00:00Z,30.3085,-88.1395,2.151,23.53,1111122 
DISL,ioos:station:DISL:CATA:1,2013-12-04T10:30:00Z,30.3085,-88.1395,2.108,24.11,1111122 
DISL,ioos:station:DISL:CATA:1,2013-12-04T11:00:00Z,30.3085,-88.1395,2.066,23.32,1111122 
DISL,ioos:station:DISL:CATA:1,2013-12-04T11:30:00Z,30.3085,-88.1395,2.008,22.35,1111122 
DISL,ioos:station:DISL:CATA:1,2013-12-04T12:00:00Z,30.3085,-88.1395,1.957,21.08,1111122 
DISL,ioos:station:DISL:CATA:1,2013-12-04T12:30:00Z,30.3085,-88.1395,1.928,20.41,1111122 
DISL,ioos:station:DISL:CATA:1,2013-12-04T13:00:00Z,30.3085,-88.1395,1.905,19.76,1111122 
DISL,ioos:station:DISL:CATA:1,2013-12-04T13:30:00Z,30.3085,-88.1395,1.882,18.92,1111122 
DISL,ioos:station:DISL:CATA:1,2013-12-04T14:00:00Z,30.3085,-88.1395,1.857,18.39,1111122 
DISL,ioos:station:DISL:CATA:1,2013-12-04T14:30:00Z,30.3085,-88.1395,1.864,17.77,1111122 
DISL,ioos:station:DISL:CATA:1,2013-12-04T15:00:00Z,30.3085,-88.1395,1.867,17.14,1111122 
DISL,ioos:station:DISL:CATA:1,2013-12-04T15:30:00Z,30.3085,-88.1395,1.876,16.66,1111122 
DISL,ioos:station:DISL:CATA:1,2013-12-04T16:00:00Z,30.3085,-88.1395,1.887,16.56,1111122 
DISL,ioos:station:DISL:CATA:1,2013-12-04T16:30:00Z,30.3085,-88.1395,1.903,16.64,1111122 
DISL,ioos:station:DISL:CATA:1,2013-12-04T17:00:00Z,30.3085,-88.1395,1.911,16.73,1111122 
DISL,ioos:station:DISL:CATA:1,2013-12-04T17:30:00Z,30.3085,-88.1395,1.919,16.8,1111122 
DISL,ioos:station:DISL:CATA:1,2013-12-04T18:00:00Z,30.3085,-88.1395,1.935,16.76,1111122 
DISL,ioos:station:DISL:CATA:1,2013-12-04T18:30:00Z,30.3085,-88.1395,1.968,16.74,1111122 
DISL,ioos:station:DISL:CATA:1,2013-12-04T19:00:00Z,30.3085,-88.1395,2.004,15.83,1111122 
DISL,ioos:station:DISL:CATA:1,2013-12-04T19:30:00Z,30.3085,-88.1395,2.044,15.7,1111122 
DISL,ioos:station:DISL:CATA:1,2013-12-04T20:00:00Z,30.3085,-88.1395,2.061,15.98,1111122 
DISL,ioos:station:DISL:CATA:1,2013-12-04T20:30:00Z,30.3085,-88.1395,2.091,15.9,1111122 
DISL,ioos:station:DISL:CATA:1,2013-12-04T21:00:00Z,30.3085,-88.1395,2.113,17.96,1111122 
DISL,ioos:station:DISL:CATA:1,2013-12-04T21:30:00Z,30.3085,-88.1395,2.139,18.89,1111122 
DISL,ioos:station:DISL:CATA:1,2013-12-04T22:00:00Z,30.3085,-88.1395,2.174,18.99,1111122 
DISL,ioos:station:DISL:CATA:1,2013-12-04T22:30:00Z,30.3085,-88.1395,2.208,19.36,1111122 
DISL,ioos:station:DISL:CATA:1,2013-12-04T23:00:00Z,30.3085,-88.1395,2.236,19.72,1111122 
DISL,ioos:station:DISL:CATA:1,2013-12-04T23:30:00Z,30.3085,-88.1395,2.277,19.88,1111122 
DISL,ioos:station:DISL:CATA:1,2013-12-05T00:00:00Z,30.3085,-88.1395,2.319,19.97,1111122 
DISL,ioos:station:DISL:CATA:1,2013-12-05T00:30:00Z,30.3085,-88.1395,2.363,20.15,1111122 
DISL,ioos:station:DISL:CATA:1,2013-12-05T01:00:00Z,30.3085,-88.1395,2.407,20.39,1111122 
DISL,ioos:station:DISL:CATA:1,2013-12-05T01:30:00Z,30.3085,-88.1395,2.442,20.71,1111122 
DISL,ioos:station:DISL:CATA:1,2013-12-05T02:00:00Z,30.3085,-88.1395,2.491,21.42,1111122 
DISL,ioos:station:DISL:CATA:1,2013-12-05T02:30:00Z,30.3085,-88.1395,2.508,22.18,1111122 
DISL,ioos:station:DISL:CATA:1,2013-12-05T03:00:00Z,30.3085,-88.1395,2.543,22.64,1111122 
DISL,ioos:station:DISL:CATA:1,2013-12-05T03:30:00Z,30.3085,-88.1395,2.571,23.04,1111122 
DISL,ioos:station:DISL:CATA:1,2013-12-05T04:00:00Z,30.3085,-88.1395,2.598,23.32,1111122 
DISL,ioos:station:DISL:CATA:1,2013-12-05T04:30:00Z,30.3085,-88.1395,2.597,23.58,1111122 
DISL,ioos:station:DISL:CATA:1,2013-12-05T05:00:00Z,30.3085,-88.1395,2.595,23.88,1111122 
DISL,ioos:station:DISL:CATA:1,2013-12-05T05:30:00Z,30.3085,-88.1395,2.598,23.8,1111122 
DISL,ioos:station:DISL:CATA:1,2013-12-05T06:00:00Z,30.3085,-88.1395,2.579,23.85,1111122 
DISL,ioos:station:DISL:CATA:1,2013-12-05T06:30:00Z,30.3085,-88.1395,2.552,23.73,1111122 
DISL,ioos:station:DISL:CATA:1,2013-12-05T07:00:00Z,30.3085,-88.1395,2.533,24.56,1111122 
DISL,ioos:station:DISL:CATA:1,2013-12-05T07:30:00Z,30.3085,-88.1395,2.51,24.86,1111122 
DISL,ioos:station:DISL:CATA:1,2013-12-05T08:00:00Z,30.3085,-88.1395,2.469,24.66,1111122 
DISL,ioos:station:DISL:CATA:1,2013-12-05T08:30:00Z,30.3085,-88.1395,2.425,22.86,1111122 
DISL,ioos:station:DISL:CATA:1,2013-12-05T09:00:00Z,30.3085,-88.1395,2.383,20.09,1111122 
DISL,ioos:station:DISL:CATA:1,2013-12-05T09:30:00Z,30.3085,-88.1395,2.329,20.79,1111122 
DISL,ioos:station:DISL:CATA:1,2013-12-05T10:00:00Z,30.3085,-88.1395,2.275,20.88,1111122 
DISL,ioos:station:DISL:CATA:1,2013-12-05T10:30:00Z,30.3085,-88.1395,2.231,20.4,1111122 
DISL,ioos:station:DISL:CATA:1,2013-12-05T11:00:00Z,30.3085,-88.1395,2.178,19.79,1111122 
DISL,ioos:station:DISL:CATA:1,2013-12-05T11:30:00Z,30.3085,-88.1395,2.133,20.1,1111122 
DISL,ioos:station:DISL:CATA:1,2013-12-05T12:00:00Z,30.3085,-88.1395,2.094,19.38,1111122 
DISL,ioos:station:DISL:CATA:1,2013-12-05T12:30:00Z,30.3085,-88.1395,2.042,18.7,1111122 
DISL,ioos:station:DISL:CATA:1,2013-12-05T13:00:00Z,30.3085,-88.1395,2.006,18.48,1111122 
DISL,ioos:station:DISL:CATA:1,2013-12-05T13:30:00Z,30.3085,-88.1395,1.979,18.18,1111122 
DISL,ioos:station:DISL:CATA:1,2013-12-05T14:00:00Z,30.3085,-88.1395,1.948,17.52,1111122 
DISL,ioos:station:DISL:CATA:1,2013-12-05T14:30:00Z,30.3085,-88.1395,1.928,17.08,1111122 
DISL,ioos:station:DISL:CATA:1,2013-12-05T15:00:00Z,30.3085,-88.1395,1.925,16.72,1111122 
DISL,ioos:station:DISL:CATA:1,2013-12-05T15:30:00Z,30.3085,-88.1395,1.916,16.61,1111122 
DISL,ioos:station:DISL:CATA:1,2013-12-05T16:00:00Z,30.3085,-88.1395,1.92,16.51,1111122 
DISL,ioos:station:DISL:CATA:1,2013-12-05T16:30:00Z,30.3085,-88.1395,1.923,16.33,1111122 
DISL,ioos:station:DISL:CATA:1,2013-12-05T17:00:00Z,30.3085,-88.1395,1.934,16.37,1111122 
DISL,ioos:station:DISL:CATA:1,2013-12-05T17:30:00Z,30.3085,-88.1395,1.954,16.25,1111122 
DISL,ioos:station:DISL:CATA:1,2013-12-05T18:00:00Z,30.3085,-88.1395,1.966,16.2,1111122 
DISL,ioos:station:DISL:CATA:1,2013-12-05T18:30:00Z,30.3085,-88.1395,1.977,16.14,1111122 
DISL,ioos:station:DISL:CATA:1,2013-12-05T19:00:00Z,30.3085,-88.1395,2.0,16.17,1111122 
DISL,ioos:station:DISL:CATA:1,2013-12-05T19:30:00Z,30.3085,-88.1395,2.022,16.32,1111122 
DISL,ioos:station:DISL:CATA:1,2013-12-05T20:00:00Z,30.3085,-88.1395,2.042,16.48,1111122 
DISL,ioos:station:DISL:CATA:1,2013-12-05T20:30:00Z,30.3085,-88.1395,2.067,16.34,1111122 
DISL,ioos:station:DISL:CATA:1,2013-12-05T21:00:00Z,30.3085,-88.1395,2.104,16.41,1111122 
DISL,ioos:station:DISL:CATA:1,2013-12-05T21:30:00Z,30.3085,-88.1395,2.136,16.45,1111122 
DISL,ioos:station:DISL:CATA:1,2013-12-05T22:00:00Z,30.3085,-88.1395,2.159,16.59,1111122 
DISL,ioos:station:DISL:CATA:1,2013-12-05T22:30:00Z,30.3085,-88.1395,2.189,16.82,1111122 
DISL,ioos:station:DISL:CATA:1,2013-12-05T23:00:00Z,30.3085,-88.1395,2.212,17.11,1111122 
DISL,ioos:station:DISL:CATA:1,2013-12-05T23:30:00Z,30.3085,-88.1395,2.237,17.35,1111122 
DISL,ioos:station:DISL:CATA:1,2013-12-06T00:00:00Z,30.3085,-88.1395,2.263,17.35,1111122 
DISL,ioos:station:DISL:CATA:1,2013-12-06T00:30:00Z,30.3085,-88.1395,2.29,17.33,1111122 
DISL,ioos:station:DISL:CATA:1,2013-12-06T01:00:00Z,30.3085,-88.1395,2.329,17.94,1111122 
DISL,ioos:station:DISL:CATA:1,2013-12-06T01:30:00Z,30.3085,-88.1395,2.367,18.22,1111122 
DISL,ioos:station:DISL:CATA:1,2013-12-06T02:00:00Z,30.3085,-88.1395,2.396,19.04,1111122 
DISL,ioos:station:DISL:CATA:1,2013-12-06T02:30:00Z,30.3085,-88.1395,2.431,19.6,1111122 
DISL,ioos:station:DISL:CATA:1,2013-12-06T03:00:00Z,30.3085,-88.1395,2.472,19.8,1111122 
DISL,ioos:station:DISL:CATA:1,2013-12-06T03:30:00Z,30.3085,-88.1395,2.506,20.13,1111122 
DISL,ioos:station:DISL:CATA:1,2013-12-06T04:00:00Z,30.3085,-88.1395,2.547,20.53,1111122 
DISL,ioos:station:DISL:CATA:1,2013-12-06T04:30:00Z,30.3085,-88.1395,2.581,20.68,1111122 
DISL,ioos:station:DISL:CATA:1,2013-12-06T05:00:00Z,30.3085,-88.1395,2.585,21.24,1111122 
DISL,ioos:station:DISL:CATA:1,2013-12-06T05:30:00Z,30.3085,-88.1395,2.594,21.58,1111122 
DISL,ioos:station:DISL:CATA:1,2013-12-06T06:00:00Z,30.3085,-88.1395,2.589,21.69,1111122 
DISL,ioos:station:DISL:CATA:1,2013-12-06T06:30:00Z,30.3085,-88.1395,2.583,22.15,1111122 
DISL,ioos:station:DISL:CATA:1,2013-12-06T07:00:00Z,30.3085,-88.1395,2.563,21.94,1111122 
DISL,ioos:station:DISL:CATA:1,2013-12-06T07:30:00Z,30.3085,-88.1395,2.543,22.78,1111122 
DISL,ioos:station:DISL:CATA:1,2013-12-06T08:00:00Z,30.3085,-88.1395,2.52,22.88,1111122 
DISL,ioos:station:DISL:CATA:1,2013-12-06T08:30:00Z,30.3085,-88.1395,2.5,22.83,1111122 
DISL,ioos:station:DISL:CATA:1,2013-12-06T09:00:00Z,30.3085,-88.1395,2.478,22.0,1111122 
DISL,ioos:station:DISL:CATA:1,2013-12-06T09:30:00Z,30.3085,-88.1395,2.451,20.56,1111122 
DISL,ioos:station:DISL:CATA:1,2013-12-06T10:00:00Z,30.3085,-88.1395,2.423,20.18,1111122 
DISL,ioos:station:DISL:CATA:1,2013-12-06T10:30:00Z,30.3085,-88.1395,2.388,20.03,1111122 
DISL,ioos:station:DISL:CATA:1,2013-12-06T11:00:00Z,30.3085,-88.1395,2.344,19.67,1111122 
DISL,ioos:station:DISL:CATA:1,2013-12-06T11:30:00Z,30.3085,-88.1395,2.298,19.8,1111122 
DISL,ioos:station:DISL:CATA:1,2013-12-06T12:00:00Z,30.3085,-88.1395,2.25,20.38,1111122 
DISL,ioos:station:DISL:CATA:1,2013-12-06T12:30:00Z,30.3085,-88.1395,2.202,20.35,1111122 
DISL,ioos:station:DISL:CATA:1,2013-12-06T13:00:00Z,30.3085,-88.1395,2.151,20.56,1111122 
DISL,ioos:station:DISL:CATA:1,2013-12-06T13:30:00Z,30.3085,-88.1395,2.115,20.47,1111122 
DISL,ioos:station:DISL:CATA:1,2013-12-06T14:00:00Z,30.3085,-88.1395,2.074,19.96,1111122 